APG8975 RPVB-RPMR

Flight info

Callsign APG8975
Flight time 1h 0m
Altitude 31000
Route NANAS4P NANAS B472 COT W19 MELBY MELBY3P
Aircraft A320/M-SDE3FGHIRWY/LB1

Departure

Time 2026-04-30 20:38
Airport Bacolod-Silay International Airport (RPVB)

Arrival

Time 2026-04-30 21:38
Airport General Santos International Airport (RPMR)
Time Latitude Longitude Altitude Speed Heading
2026-04-30 20:13 10.77598 123.01522 85 ft 0 kts 299°
2026-04-30 20:32 10.77590 123.01538 86 ft 4 kts 297°
2026-04-30 20:32 10.77573 123.01588 85 ft 4 kts 250°
2026-04-30 20:33 10.77579 123.01598 85 ft 0 kts 210°
2026-04-30 20:35 10.77569 123.01592 85 ft 7 kts 210°
2026-04-30 20:35 10.77491 123.01546 85 ft 19 kts 210°
2026-04-30 20:35 10.77316 123.01600 86 ft 21 kts 120°
2026-04-30 20:36 10.77178 123.01623 86 ft 28 kts 211°
2026-04-30 20:36 10.76983 123.01509 85 ft 28 kts 210°
2026-04-30 20:36 10.76917 123.01471 87 ft 11 kts 33°
2026-04-30 20:37 10.76940 123.01485 87 ft 10 kts 31°
2026-04-30 20:37 10.77224 123.01651 87 ft 85 kts 30°
2026-04-30 20:37 10.77916 123.02054 91 ft 142 kts 30°
2026-04-30 20:37 10.78835 123.02588 515 ft 154 kts 33°
2026-04-30 20:38 10.79756 123.03116 1228 ft 150 kts 28°
2026-04-30 20:38 10.80787 123.03237 1801 ft 156 kts 349°
2026-04-30 20:38 10.81749 123.02596 2042 ft 184 kts 308°
2026-04-30 20:39 10.82254 122.99719 2455 ft 232 kts 275°
2026-04-30 20:39 10.82376 122.98018 2777 ft 253 kts 275°
2026-04-30 20:39 10.82513 122.96148 3136 ft 275 kts 275°
2026-04-30 20:40 10.82818 122.92144 4570 ft 290 kts 275°
2026-04-30 20:40 10.82982 122.90090 5365 ft 293 kts 275°
2026-04-30 20:40 10.83149 122.88011 6161 ft 297 kts 275°
2026-04-30 20:41 10.82889 122.83842 7603 ft 304 kts 245°
2026-04-30 20:41 10.81728 122.82055 8318 ft 305 kts 222°
2026-04-30 20:41 10.79987 122.80857 9048 ft 302 kts 198°
2026-04-30 20:41 10.77955 122.80422 9798 ft 296 kts 175°
2026-04-30 20:42 10.76009 122.80695 10894 ft 273 kts 165°
2026-04-30 20:42 10.74161 122.81043 11733 ft 270 kts 166°
2026-04-30 20:42 10.70429 122.81720 12993 ft 275 kts 166°
2026-04-30 20:43 10.68533 122.82064 13595 ft 278 kts 166°
2026-04-30 20:43 10.66620 122.82415 14125 ft 281 kts 166°
2026-04-30 20:43 10.64691 122.82769 14658 ft 283 kts 166°
2026-04-30 20:44 10.60771 122.83487 15702 ft 288 kts 166°
2026-04-30 20:44 10.58788 122.83853 16218 ft 291 kts 166°
2026-04-30 20:44 10.54781 122.84591 17219 ft 297 kts 167°
2026-04-30 20:45 10.50659 122.85350 18222 ft 302 kts 167°
2026-04-30 20:45 10.48606 122.85731 18655 ft 304 kts 167°
2026-04-30 20:45 10.46522 122.86115 19101 ft 306 kts 167°
2026-04-30 20:46 10.40191 122.87275 20432 ft 311 kts 167°
2026-04-30 20:46 10.38055 122.87665 20885 ft 312 kts 167°
2026-04-30 20:47 10.33747 122.88450 21774 ft 316 kts 168°
2026-04-30 20:47 10.31575 122.88847 22220 ft 318 kts 168°
2026-04-30 20:48 10.27200 122.89659 23092 ft 321 kts 168°
2026-04-30 20:48 10.24995 122.90070 23511 ft 323 kts 167°
2026-04-30 20:48 10.22777 122.90480 23862 ft 325 kts 168°
2026-04-30 20:48 10.20574 122.90884 24212 ft 326 kts 168°
2026-04-30 20:49 10.18327 122.91295 24565 ft 328 kts 168°
2026-04-30 20:49 10.16078 122.91707 24915 ft 329 kts 168°
2026-04-30 20:49 10.13817 122.92121 25268 ft 331 kts 168°
2026-04-30 20:50 10.09269 122.92960 25967 ft 334 kts 167°
2026-04-30 20:50 10.06970 122.93384 26317 ft 335 kts 167°
2026-04-30 20:50 10.04697 122.93805 26662 ft 337 kts 168°
2026-04-30 20:50 10.02380 122.94229 27006 ft 338 kts 167°
2026-04-30 20:51 10.00059 122.94654 27347 ft 340 kts 167°
2026-04-30 20:51 9.95380 122.95510 28014 ft 343 kts 167°
2026-04-30 20:51 9.93028 122.95940 28362 ft 344 kts 167°
2026-04-30 20:52 9.90673 122.96373 28695 ft 345 kts 167°
2026-04-30 20:52 9.88302 122.96808 29025 ft 347 kts 167°
2026-04-30 20:52 9.83533 122.97685 29698 ft 350 kts 167°
2026-04-30 20:53 9.81128 122.98132 30005 ft 351 kts 165°
2026-04-30 20:53 9.78755 122.98773 30182 ft 354 kts 159°
2026-04-30 20:53 9.76496 122.99705 30397 ft 356 kts 153°
2026-04-30 20:54 9.72004 123.01835 30872 ft 357 kts 153°
2026-04-30 20:54 9.69753 123.02889 30908 ft 357 kts 153°
2026-04-30 20:55 9.62991 123.06056 30916 ft 356 kts 153°
2026-04-30 20:55 9.58493 123.08165 30910 ft 356 kts 153°
2026-04-30 20:56 9.51784 123.11322 30914 ft 355 kts 153°
2026-04-30 20:57 9.45056 123.14478 30904 ft 355 kts 153°
2026-04-30 20:57 9.40562 123.16584 30900 ft 356 kts 153°
2026-04-30 20:58 9.33809 123.19749 30906 ft 360 kts 153°
2026-04-30 20:58 9.29237 123.21901 30904 ft 363 kts 153°
2026-04-30 20:59 9.22347 123.25125 30899 ft 364 kts 154°
2026-04-30 21:00 9.17605 123.27344 30903 ft 387 kts 154°
2026-04-30 21:00 9.12585 123.29692 30902 ft 408 kts 154°
2026-04-30 21:01 9.07313 123.32164 30898 ft 427 kts 154°
2026-04-30 21:01 9.04596 123.33439 30893 ft 435 kts 154°
2026-04-30 21:01 8.98991 123.36064 30895 ft 451 kts 154°
2026-04-30 21:02 8.96128 123.37400 30895 ft 457 kts 154°
2026-04-30 21:02 8.90278 123.40139 30893 ft 467 kts 154°
2026-04-30 21:03 8.84374 123.42897 30892 ft 474 kts 154°
2026-04-30 21:03 8.81413 123.44278 30884 ft 459 kts 154°
2026-04-30 21:03 8.78578 123.45603 30887 ft 439 kts 154°
2026-04-30 21:04 8.73078 123.48177 30899 ft 434 kts 154°
2026-04-30 21:04 8.64884 123.52001 30898 ft 433 kts 154°
2026-04-30 21:05 8.59417 123.54556 30909 ft 432 kts 154°
2026-04-30 21:05 8.53948 123.57112 30912 ft 435 kts 154°
2026-04-30 21:06 8.48344 123.59731 30915 ft 451 kts 154°
2026-04-30 21:06 8.42559 123.62429 30910 ft 464 kts 154°
2026-04-30 21:07 8.36647 123.65184 30910 ft 472 kts 154°
2026-04-30 21:07 8.30640 123.67985 30915 ft 477 kts 154°
2026-04-30 21:08 8.24604 123.70799 30913 ft 478 kts 154°
2026-04-30 21:08 8.18561 123.73616 30916 ft 478 kts 154°
2026-04-30 21:09 8.12521 123.76428 30915 ft 478 kts 154°
2026-04-30 21:09 8.06526 123.79219 30914 ft 478 kts 154°
2026-04-30 21:10 8.00475 123.82033 30919 ft 478 kts 154°
2026-04-30 21:10 7.94424 123.84848 30923 ft 478 kts 154°
2026-04-30 21:11 7.88381 123.87654 30928 ft 478 kts 154°
2026-04-30 21:11 7.82367 123.90452 30927 ft 478 kts 154°
2026-04-30 21:12 7.76322 123.93269 30930 ft 478 kts 154°
2026-04-30 21:12 7.71291 123.95605 30930 ft 477 kts 154°
2026-04-30 21:13 7.65258 123.98413 30923 ft 477 kts 154°
2026-04-30 21:13 7.58258 124.01662 30920 ft 477 kts 154°
2026-04-30 21:14 7.53208 124.04003 30914 ft 477 kts 154°
2026-04-30 21:14 7.47180 124.06801 30910 ft 477 kts 154°
2026-04-30 21:15 7.41190 124.09587 30912 ft 477 kts 154°
2026-04-30 21:15 7.35158 124.12382 30908 ft 477 kts 154°
2026-04-30 21:16 7.29232 124.15131 30898 ft 455 kts 154°
2026-04-30 21:16 7.23542 124.17758 30902 ft 446 kts 154°
2026-04-30 21:17 7.17910 124.20402 30898 ft 445 kts 150°
2026-04-30 21:17 7.12909 124.24019 30903 ft 443 kts 140°
2026-04-30 21:18 7.08150 124.27894 30904 ft 443 kts 140°
2026-04-30 21:18 7.03344 124.31780 30903 ft 443 kts 140°
2026-04-30 21:19 6.98546 124.35664 30900 ft 442 kts 140°
2026-04-30 21:19 6.93749 124.39557 30897 ft 442 kts 140°
2026-04-30 21:20 6.91352 124.41502 30448 ft 444 kts 140°
2026-04-30 21:20 6.88939 124.43458 29654 ft 445 kts 140°
2026-04-30 21:20 6.86544 124.45397 29055 ft 440 kts 140°
2026-04-30 21:20 6.84174 124.47314 28454 ft 435 kts 140°
2026-04-30 21:21 6.81823 124.49218 27868 ft 431 kts 140°
2026-04-30 21:21 6.79489 124.51109 27284 ft 428 kts 140°
2026-04-30 21:21 6.74915 124.54814 26131 ft 421 kts 140°
2026-04-30 21:22 6.72643 124.56653 25583 ft 418 kts 140°
2026-04-30 21:22 6.65883 124.62097 23966 ft 410 kts 141°
2026-04-30 21:23 6.63629 124.63846 23435 ft 408 kts 141°
2026-04-30 21:23 6.61369 124.65556 22883 ft 405 kts 142°
2026-04-30 21:23 6.56888 124.68899 21919 ft 397 kts 142°
2026-04-30 21:24 6.54687 124.70551 21445 ft 393 kts 142°
2026-04-30 21:24 6.52501 124.72201 20969 ft 390 kts 142°
2026-04-30 21:24 6.50366 124.73820 20494 ft 387 kts 142°
2026-04-30 21:24 6.48221 124.75447 20021 ft 385 kts 142°
2026-04-30 21:25 6.43966 124.78678 19050 ft 382 kts 142°
2026-04-30 21:25 6.41849 124.80283 18554 ft 381 kts 142°
2026-04-30 21:25 6.39745 124.81905 18026 ft 380 kts 138°
2026-04-30 21:26 6.36417 124.85940 17019 ft 373 kts 124°
2026-04-30 21:26 6.34940 124.88070 16523 ft 370 kts 124°
2026-04-30 21:27 6.32005 124.92288 15565 ft 366 kts 124°
2026-04-30 21:27 6.30526 124.94371 15082 ft 365 kts 128°
2026-04-30 21:27 6.28892 124.96321 14601 ft 364 kts 129°
2026-04-30 21:28 6.25632 125.00189 13617 ft 362 kts 129°
2026-04-30 21:28 6.24010 125.02116 13103 ft 359 kts 129°
2026-04-30 21:28 6.20814 125.05920 12118 ft 353 kts 129°
2026-04-30 21:29 6.19236 125.07801 11622 ft 351 kts 129°
2026-04-30 21:29 6.14600 125.13319 10399 ft 336 kts 129°
2026-04-30 21:30 6.11667 125.16724 10164 ft 310 kts 136°
2026-04-30 21:31 6.05900 125.18906 9411 ft 298 kts 171°
2026-04-30 21:31 6.01792 125.19399 8650 ft 294 kts 171°
2026-04-30 21:32 5.97768 125.19877 7633 ft 284 kts 171°
2026-04-30 21:32 5.95839 125.20112 7225 ft 273 kts 170°
2026-04-30 21:32 5.93987 125.20338 6851 ft 263 kts 170°
2026-04-30 21:32 5.92204 125.20555 6487 ft 253 kts 170°
2026-04-30 21:33 5.90480 125.20638 6122 ft 246 kts 188°
2026-04-30 21:33 5.88071 125.18476 5397 ft 247 kts 258°
2026-04-30 21:33 5.87875 125.16770 5011 ft 247 kts 266°
2026-04-30 21:34 5.87688 125.15050 4632 ft 249 kts 264°
2026-04-30 21:34 5.88376 125.11935 3879 ft 227 kts 325°
2026-04-30 21:34 5.89770 125.11346 3575 ft 213 kts 351°
2026-04-30 21:35 5.91205 125.11144 3281 ft 204 kts 356°
2026-04-30 21:35 5.92588 125.11028 2989 ft 199 kts 356°
2026-04-30 21:35 5.93972 125.10917 2709 ft 197 kts 356°
2026-04-30 21:35 5.95334 125.10794 2461 ft 194 kts 355°
2026-04-30 21:36 5.96665 125.10662 2162 ft 191 kts 355°
2026-04-30 21:36 5.97980 125.10524 1856 ft 188 kts 354°
2026-04-30 21:37 6.01373 125.10137 1149 ft 146 kts 353°
2026-04-30 21:37 6.02370 125.10019 944 ft 143 kts 353°
2026-04-30 21:37 6.03357 125.09902 734 ft 142 kts 353°
2026-04-30 21:37 6.04335 125.09796 560 ft 140 kts 352°
2026-04-30 21:38 6.05238 125.09686 513 ft 102 kts 353°
2026-04-30 21:38 6.05644 125.09638 513 ft 15 kts 353°
2026-04-30 21:38 6.05763 125.09624 514 ft 15 kts 355°
2026-04-30 21:38 6.05820 125.09683 514 ft 18 kts 85°
2026-04-30 21:39 6.05834 125.09794 514 ft 10 kts 82°
2026-04-30 21:39 6.05842 125.09861 514 ft 9 kts 82°
2026-04-30 21:39 6.05846 125.09889 514 ft 1 kts 83°
2026-04-30 21:39 6.05846 125.09896 514 ft 3 kts 83°
2026-04-30 21:40 6.05849 125.09918 514 ft 3 kts 83°
2026-04-30 21:40 6.05851 125.09933 514 ft 2 kts 83°
2026-04-30 21:40 6.05852 125.09939 514 ft 0 kts 83°